[[{"header":{"parameterUnit":"m.s-1","parameterCategory":1,"la1":30.2991,"la2":30.254,"lo1":-89.0895,"lo2":-89.0444,"dy":0.0017,"dx":0.0017,"nx":28,"ny":28,"refTime":"2024-08-15T21:00:00:Z","depth":0,"parameterNumber":2,"parameterNumberName":"U-component_of_WINDS"},"data":[0,0,0,0,0,0,0,0,0,0,0,0,0,0,0,0,0,0,0,0,0,0,0,0,0,0,0,0,0,0,0,0,0,0,0,0,0,0,0,0,0,0,0,0,0,0,0,0,0,0,0,0,0,0,0,0,0,0,0.6401,0.6401,0,0.6393,0.6393,0.6393,0.6397,0.6397,0.6398,0.6398,0.6389,0.6389,0.6388,0,0,0,0,0,0,0,0,0,0,0,0,0,0.6421,0.6421,0.6401,0.6401,0.6401,0.6393,0.6393,0.6393,0.6397,0.6397,0.6398,0.6398,0.6389,0.6389,0.6388,0,0,0,0,0,0,0,0,0,0,0,0,0,0.6413,0.6421,0.6401,0.6402,0.6402,0.6393,0.6393,0.6393,0.6397,0.6397,0.6398,0.6398,0.6389,0.6389,0.6388,0.6377,0,0,0.6386,0.6386,0,0,0,0,0,0,0,0,0.6413,0.6412,0.6402,0.6402,0.6402,0.6396,0.6397,0.6387,0.6397,0.6399,0.6398,0.6398,0.6391,0.639,0.6388,0.6377,0.6376,0.6386,0.6386,0.6385,0.6385,0,0,0,0,0,0,0,0.6414,0.6412,0.6398,0.6402,0.6402,0.6403,0.6402,0.6395,0.6393,0.6399,0.6399,0.6398,0.6391,0.6389,0.6388,0.6376,0.6386,0.6385,0.6385,0.6385,0.6357,0.6357,0,0,0,0,0,0,0.6414,0.6413,0.6398,0.6397,0.6409,0.6403,0.6402,0.6398,0.6393,0.6393,0.6398,0.6398,0.639,0.6389,0.6388,0.6375,0.6385,0.6385,0.6384,0.6357,0.6357,0.6357,0,0,0,0,0,0,0.6415,0.6413,0.6398,0.6405,0.6403,0.6402,0.6398,0.6397,0.6395,0.6393,0.6392,0.6396,0.639,0.6389,0.638,0.6375,0.6384,0.6384,0.6358,0.6357,0.6357,0.635,0,0,0,0,0,0,0.6415,0.6413,0.6408,0.6405,0.6403,0.639,0.6397,0.6397,0.6394,0.6394,0.639,0.639,0.639,0.6381,0.6379,0.6374,0.6383,0.6358,0.6358,0.6357,0.635,0.6349,0.6348,0,0,0,0,0,0.6416,0.6406,0.6408,0.6406,0.6397,0.639,0.6389,0.6389,0.6393,0.6389,0.6388,0.639,0.6376,0.638,0.6378,0.6373,0.6358,0.6358,0.6357,0.6351,0.6349,0.6348,0,0,0,0,0,0,0.6408,0.6406,0.6408,0.6397,0.6394,0.6391,0.6385,0.6387,0.6383,0.6384,0.6384,0.6384,0.6375,0.6373,0.6378,0.6363,0.6368,0.6367,0.6364,0.6362,0.6361,0.6361,0.6383,0,0,0,0,0,0.6405,0.64,0.6398,0.6388,0.6387,0.6386,0.6383,0.6384,0.6381,0.6379,0.6378,0.6374,0.637,0.6366,0.6361,0.6351,0.635,0.6346,0.6345,0.6344,0.6343,0.6338,0.6337,0.6354,0.6354,0.6354,0,0,0.6399,0.6397,0.6393,0.6387,0.6385,0.6379,0.6385,0.6379,0.6375,0.6378,0.637,0.6369,0.6366,0.6357,0.6352,0.6355,0.6338,0.6343,0.6342,0.6342,0.6337,0.6336,0.6334,0.6354,0.6354,0.6354,0,0,0.6385,0.6383,0.6375,0.6373,0.637,0.637,0.6368,0.6366,0.6365,0.6357,0.636,0.6356,0.6347,0.6345,0.6343,0.633,0.6332,0.6329,0.6322,0.6317,0.6316,0.6315,0.6311,0.6309,0.6328,0.6328,0.6328,0,0.6377,0.6369,0.637,0.6364,0.6362,0.6366,0.6359,0.6357,0.6352,0.635,0.6354,0.6344,0.6341,0.6332,0.633,0.6327,0.6326,0.6328,0.6316,0.6315,0.6314,0.631,0.6308,0.6327,0.6327,0.6327,0.6327,0,0.636,0.6354,0.6349,0.6345,0.6342,0.6335,0.6336,0.6333,0.6335,0.6335,0.6328,0.6326,0.6321,0.632,0.6321,0.6311,0.6313,0.6316,0.6321,0.6312,0.6308,0.6307,0.6327,0.6327,0.6327,0.6327,0,0,0.6338,0.6337,0.6335,0.6334,0.6332,0.6328,0.6322,0.6318,0.6316,0.6313,0.6309,0.6302,0.6306,0.6303,0.6305,0.6301,0.6292,0.6305,0.6305,0.6302,0.6282,0.6279,0.6278,0.6294,0.6294,0.6293,0.6282,0,0.6324,0.6314,0.6316,0.6306,0.6301,0.6307,0.6302,0.63,0.6301,0.6297,0.6298,0.6293,0.6298,0.6297,0.6294,0.6294,0.6288,0.6295,0.629,0.629,0.629,0.6276,0.6272,0.6262,0.6281,0.6281,0.6281,0,0.6305,0.6303,0.6292,0.6293,0.6291,0.6286,0.6284,0.628,0.6279,0.628,0.6279,0.6281,0.6276,0.6282,0.6276,0.628,0.6279,0.6279,0.6279,0.6278,0.6284,0.6274,0.6258,0.6257,0.6278,0.6278,0.6279,0,0.6291,0.6285,0.6278,0.6277,0.6278,0.6274,0.6274,0.6274,0.6272,0.627,0.6269,0.6267,0.6265,0.6263,0.6266,0.627,0.6259,0.6265,0.626,0.626,0.6256,0.6256,0.624,0.6256,0.6256,0.6256,0.6256,0,0.6274,0.6268,0.6272,0.6268,0.6261,0.6265,0.6258,0.6259,0.6259,0.6255,0.626,0.6257,0.626,0.6257,0.6259,0.6254,0.6253,0.6254,0.6255,0.6254,0.6253,0.6252,0.6253,0.6256,0.6256,0.6256,0.6256,0,0.6256,0.6259,0.6252,0.6254,0.6254,0.6249,0.6251,0.6247,0.6249,0.6245,0.6244,0.6246,0.6244,0.6246,0.6243,0.6245,0.6238,0.6239,0.6238,0.6238,0.6233,0.6234,0.6215,0.6213,0.623,0.623,0.623,0,0.6245,0.624,0.6242,0.624,0.624,0.6237,0.6236,0.624,0.6238,0.6238,0.6235,0.6233,0.6231,0.6226,0.6228,0.6226,0.6228,0.6222,0.6228,0.6227,0.6228,0.6228,0.6228,0.622,0.622,0.622,0.622,0,0.6225,0.6227,0.6225,0.6224,0.6222,0.6221,0.6221,0.6219,0.6224,0.6222,0.6219,0.6218,0.6216,0.6214,0.6213,0.6214,0.6217,0.6218,0.6217,0.6215,0.6214,0.6215,0.6234,0.6218,0.6218,0.6218,0.6218,0.6218,0.621,0.6207,0.6208,0.6206,0.6206,0.6206,0.6203,0.6205,0.6203,0.6202,0.6205,0.6202,0.6203,0.6203,0.6203,0.6201,0.6204,0.6202,0.6201,0.6201,0.62,0.6215,0.6201,0.6201,0.6201,0.6201,0.6201,0,0.619,0.6192,0.619,0.619,0.6188,0.6193,0.6194,0.6192,0.619,0.619,0.6189,0.6187,0.6186,0.6188,0.6188,0.6186,0.6188,0.6186,0.6185,0.6186,0.6198,0.6199,0.6184,0.6184,0.6184,0.6184,0.6184,0.6184,0.618,0.6175,0.6177,0.6173,0.6175,0.6172,0.6172,0.6172,0.6173,0.6171,0.617,0.6172,0.6174,0.6174,0.6173,0.6174,0.6173,0.6171,0.6172,0.6183,0.6185,0.6186,0.6187,0.6171,0.6171,0.616,0.616,0.616]},{"header":{"parameterUnit":"m.s-1","parameterCategory":1,"la1":30.2991,"la2":30.254,"lo1":-89.0895,"lo2":-89.0444,"dy":0.0017,"dx":0.0017,"nx":28,"ny":28,"refTime":"2024-08-15T21:00:00:Z","depth":0,"parameterNumber":3,"parameterNumberName":"V-component_of_WINDS"},"data":[0,0,0,0,0,0,0,0,0,0,0,0,0,0,0,0,0,0,0,0,0,0,0,0,0,0,0,0,0,0,0,0,0,0,0,0,0,0,0,0,0,0,0,0,0,0,0,0,0,0,0,0,0,0,0,0,0,0,-0.4728,-0.4729,0,-0.4797,-0.4798,-0.4798,-0.4821,-0.4821,-0.4821,-0.4821,-0.4892,-0.4894,-0.4896,0,0,0,0,0,0,0,0,0,0,0,0,0,-0.4618,-0.462,-0.4728,-0.4729,-0.4729,-0.4797,-0.4798,-0.4799,-0.4821,-0.4821,-0.4821,-0.482,-0.4891,-0.4894,-0.4896,0,0,0,0,0,0,0,0,0,0,0,0,0,-0.4674,-0.462,-0.4728,-0.4749,-0.4752,-0.4796,-0.4798,-0.4799,-0.4822,-0.4821,-0.4821,-0.482,-0.489,-0.4893,-0.4897,-0.4925,0,0,-0.4907,-0.4908,0,0,0,0,0,0,0,0,-0.4671,-0.4678,-0.4745,-0.4748,-0.4751,-0.48,-0.4785,-0.4841,-0.4822,-0.4795,-0.4821,-0.482,-0.4862,-0.4867,-0.4881,-0.4929,-0.4932,-0.4907,-0.4909,-0.491,-0.4911,0,0,0,0,0,0,0,-0.4667,-0.4675,-0.4755,-0.4746,-0.4749,-0.4756,-0.4763,-0.4796,-0.483,-0.4797,-0.4799,-0.4807,-0.4863,-0.4878,-0.4883,-0.4933,-0.4907,-0.491,-0.4912,-0.4913,-0.5009,-0.501,0,0,0,0,0,0,-0.4659,-0.4672,-0.4753,-0.4757,-0.4709,-0.4758,-0.4766,-0.4785,-0.483,-0.4836,-0.4807,-0.4808,-0.4873,-0.4879,-0.4886,-0.4923,-0.491,-0.4913,-0.4915,-0.5008,-0.5009,-0.501,0,0,0,0,0,0,-0.4657,-0.4666,-0.475,-0.4715,-0.4726,-0.476,-0.4781,-0.4786,-0.4801,-0.4837,-0.4844,-0.4816,-0.4873,-0.4881,-0.4916,-0.4926,-0.4915,-0.4918,-0.5008,-0.5009,-0.501,-0.4998,0,0,0,0,0,0,-0.4653,-0.4665,-0.4676,-0.4715,-0.4728,-0.4778,-0.4781,-0.4788,-0.4807,-0.4808,-0.4847,-0.4853,-0.4873,-0.4911,-0.4919,-0.493,-0.492,-0.5007,-0.5008,-0.5009,-0.4998,-0.4999,-0.4999,0,0,0,0,0,-0.4649,-0.467,-0.4676,-0.4686,-0.4742,-0.4779,-0.4786,-0.4808,-0.4807,-0.4819,-0.4842,-0.4852,-0.4923,-0.4914,-0.4923,-0.4936,-0.5006,-0.5008,-0.5009,-0.4998,-0.4999,-0.4999,0,0,0,0,0,0,-0.4631,-0.4675,-0.4683,-0.4717,-0.4744,-0.4783,-0.4798,-0.4809,-0.4837,-0.4837,-0.4863,-0.4872,-0.4905,-0.4924,-0.4913,-0.4967,-0.4966,-0.4969,-0.4954,-0.4955,-0.4956,-0.4951,-0.4923,0,0,0,0,0,-0.4631,-0.4657,-0.4694,-0.472,-0.4734,-0.4763,-0.478,-0.4795,-0.4824,-0.4836,-0.4862,-0.489,-0.492,-0.4938,-0.4967,-0.5001,-0.501,-0.5014,-0.5015,-0.5015,-0.5018,-0.5039,-0.5041,-0.5014,-0.5014,-0.5014,0,0,-0.4631,-0.4658,-0.4673,-0.4717,-0.474,-0.4767,-0.4773,-0.4801,-0.4821,-0.484,-0.4875,-0.4895,-0.4929,-0.4963,-0.498,-0.498,-0.5028,-0.5017,-0.5017,-0.502,-0.5041,-0.5043,-0.5045,-0.5015,-0.5015,-0.5015,0,0,-0.4645,-0.4668,-0.4693,-0.4715,-0.475,-0.477,-0.4776,-0.4814,-0.4828,-0.4863,-0.4878,-0.4903,-0.4952,-0.4976,-0.4994,-0.5018,-0.5029,-0.5027,-0.5031,-0.5051,-0.5053,-0.5055,-0.5065,-0.5068,-0.5029,-0.5029,-0.5029,0,-0.4641,-0.4681,-0.4704,-0.4732,-0.4751,-0.477,-0.4796,-0.4817,-0.4859,-0.4873,-0.4872,-0.4935,-0.4959,-0.5,-0.5006,-0.502,-0.5029,-0.5023,-0.5051,-0.5053,-0.5056,-0.5065,-0.5069,-0.5029,-0.5029,-0.5029,-0.5029,0,-0.4675,-0.4703,-0.4719,-0.476,-0.4781,-0.4808,-0.4835,-0.4854,-0.4867,-0.4887,-0.4923,-0.4953,-0.4988,-0.4999,-0.5012,-0.5042,-0.5042,-0.5046,-0.5045,-0.5057,-0.5067,-0.5071,-0.5028,-0.5029,-0.5029,-0.5029,0,0,-0.4679,-0.4733,-0.4738,-0.4757,-0.4797,-0.482,-0.4848,-0.4882,-0.4899,-0.4927,-0.4952,-0.4994,-0.4998,-0.5019,-0.5035,-0.5052,-0.5071,-0.5055,-0.5056,-0.5058,-0.5108,-0.5106,-0.5109,-0.5078,-0.5079,-0.5079,-0.5106,0,-0.4699,-0.475,-0.4771,-0.4812,-0.4839,-0.4857,-0.4882,-0.4909,-0.4929,-0.4955,-0.4977,-0.5007,-0.501,-0.5023,-0.5041,-0.5065,-0.5082,-0.5063,-0.5102,-0.5103,-0.5094,-0.5114,-0.5111,-0.5135,-0.511,-0.511,-0.5111,0,-0.4729,-0.4758,-0.4802,-0.484,-0.4852,-0.4873,-0.4908,-0.4932,-0.4964,-0.4977,-0.5001,-0.5016,-0.5047,-0.5044,-0.5087,-0.5074,-0.5092,-0.5106,-0.5108,-0.5113,-0.5108,-0.5121,-0.5143,-0.5147,-0.5117,-0.5116,-0.5116,0,-0.4729,-0.4779,-0.4812,-0.4828,-0.4872,-0.4887,-0.4907,-0.4938,-0.4958,-0.4988,-0.5002,-0.5035,-0.5053,-0.5079,-0.5103,-0.5098,-0.5145,-0.5143,-0.5158,-0.5157,-0.5167,-0.5166,-0.5193,-0.5176,-0.5176,-0.5176,-0.5176,0,-0.475,-0.4776,-0.4813,-0.4833,-0.4863,-0.4888,-0.4918,-0.4939,-0.4967,-0.4992,-0.501,-0.5033,-0.5063,-0.5091,-0.511,-0.5144,-0.5151,-0.5164,-0.5169,-0.5163,-0.5161,-0.5175,-0.5174,-0.5177,-0.5177,-0.5177,-0.5177,0,-0.4755,-0.4781,-0.4818,-0.4858,-0.4868,-0.4889,-0.4923,-0.4944,-0.4965,-0.4996,-0.5005,-0.5038,-0.5072,-0.5098,-0.5141,-0.5154,-0.519,-0.5195,-0.5179,-0.5182,-0.5196,-0.5194,-0.5233,-0.524,-0.5217,-0.5218,-0.5218,0,-0.4767,-0.4788,-0.483,-0.4848,-0.4867,-0.4896,-0.4916,-0.4942,-0.4963,-0.5002,-0.5018,-0.5053,-0.5082,-0.5135,-0.5163,-0.5196,-0.5203,-0.5214,-0.5208,-0.5202,-0.5204,-0.5203,-0.5206,-0.5215,-0.5215,-0.5215,-0.5215,0,-0.4786,-0.4798,-0.4827,-0.486,-0.4884,-0.4912,-0.494,-0.4954,-0.4985,-0.5008,-0.5042,-0.5065,-0.511,-0.5144,-0.5181,-0.5202,-0.5214,-0.5217,-0.5222,-0.5217,-0.5207,-0.5214,-0.5182,-0.5216,-0.5216,-0.5216,-0.5216,-0.5216,-0.4796,-0.4816,-0.4848,-0.488,-0.4904,-0.493,-0.4952,-0.4976,-0.5005,-0.5043,-0.5057,-0.5093,-0.5125,-0.5176,-0.5197,-0.5226,-0.5227,-0.5234,-0.5236,-0.5238,-0.5238,-0.5202,-0.5233,-0.5233,-0.5233,-0.5233,-0.5233,0,-0.4816,-0.4839,-0.4868,-0.4907,-0.4932,-0.4941,-0.4973,-0.4994,-0.5025,-0.5055,-0.5083,-0.5123,-0.5157,-0.5188,-0.5224,-0.5241,-0.5248,-0.5249,-0.5249,-0.5254,-0.5234,-0.5227,-0.5244,-0.5244,-0.5244,-0.5244,-0.5244,-0.5244,-0.483,-0.4864,-0.488,-0.4927,-0.4949,-0.4984,-0.5002,-0.5027,-0.5051,-0.5095,-0.5123,-0.5143,-0.5173,-0.5211,-0.5243,-0.5252,-0.5264,-0.5265,-0.5275,-0.5256,-0.5255,-0.5254,-0.5247,-0.5267,-0.5267,-0.5292,-0.5292,-0.5292]}]]